Aérodrome :
LOGIN :

S'inscrire | Disclaimer

   EN    FR    IT 

 










Légende :    VFR   VFR Marginal   IFR   IFR Intensif   IFR Très Intensif
Visi : 
Plafond : 
>= 8 km
>= 3000ft
5 à 8 km
1000 à 3000 ft
1500m à 5 km
500 à 1000 ft
800 à 1500m
200 à 500 ft
< 800m
< 200 ft
Symboles :   Orages  Brouillard  Fortes neiges  Fortes précipitations  Vent > 20 kt
SIGMETs :   Divers  Orages  Givrage  Turbulence  Onde Orograph.  Cendres Volcan.







- Altitude de l'aérodrome : 390 ft
- Code IATA : NQY
- Voir les cartes d'approche


EGHQ - Newquay

DERNIER METAR :
  • 231750Z 25015KT 9999 SCT034 10/03 Q1005

METARs EXPIRÉS :
  • 231720Z 24010G21KT 9999 SCT034 09/03 Q1005
  • 231650Z 25016KT 9999 SCT032 10/03 Q1005
  • 231620Z 24011KT 9999 SCT035 09/03 Q1004
  • 231550Z 25018G28KT 9999 -SHRA FEW020 SCT032 09/03 Q1004
  • 231520Z 25019KT 9999 SCT037 10/02 Q1004

TAF TAF EGHQ
Valide du 23 à 18h jusqu'au 23 à 22h UTC


231657Z 2318/2322 25016KT 9999 SCT040
BECMG 2318/2321 25006KT
PROB30
TEMPO 2318/2322 7000 SHRA
Pas de NOTAMs connus pour ce terrain.



MET'MAP, la Météo Aéronautique d'un coup d'oeil ! - Copyright ORBIFLY Décembre 2007 - Disclaimer

ORBIFLY MET'MAP TEAM :

Programmation & Développement : Alexandra Zaïnal
Conception & Développement : Baudouin d'Aumeries
Co-Programmation & Développement : Marc-Olivier Méhu
Soutien technique & logistique : Manuel Goepfert

Contact : metmap@orbifly.com




SOURCES & CREDITS :

   NOAA